Regional Weather Roundup
Issued by NWS New Orleans/Baton Rouge, LA

Home | Current Version | Previous Version | Text Only | Print | Product List | Glossary Off
Versions: 1 2 3 4 5 6 7 8 9 10 11 12 13 14 15 16 17 18 19 20 21 22 23 24 25 26 27 28 29 30 31 32 33 34 35 36 37 38 39 40 41 42 43 44 45 46 47 48 49 50

238
ASUS44 KLIX 181722
RWRLIX
NEW ORLEANS REGIONAL WEATHER ROUNDUP
NATIONAL WEATHER SERVICE NEW ORLEANS LA
1200 PM CDT FRI APR 18 2014

NOTE: "FAIR" INDICATES FEW OR NO CLOUDS BELOW 12,000 FEET WITH NO
      SIGNIFICANT WEATHER AND/OR OBSTRUCTIONS TO VISIBILITY.
      SKY/WX - SKY CONDITION AND SIGNIFICANT WEATHER.
      TMP - AIR TEMPERATURE.     DP    - DEWPOINT TEMPERATURE.
      RH  - RELATIVE HUMIDITY.   PRES  - PRESSURE.
      HI  - HEAT INDEX.          WCI   - WIND CHILL INDEX.

*  THESE STATIONS ARE NOT NWS OR FAA STATIONS AND ARE NOT UNDER
   NWS QUALITY CONTROL.

LAZ038-040-048-061>063-065>067-069-181800-
SOUTHEAST LOUISIANA

CITY           SKY/WX    TMP DP  RH WIND       PRES   REMARKS
N.O. AUDUBON     N/A     70 N/A N/A MISG        N/A
N.O. INTL ARPT PTSUNNY   69  60  73 N14       30.09F
N.O. LAKEFRONT PTSUNNY   70  62  76 N9        30.09F
N.O. DOWNTOWN* CLOUDY    68  57  68 N12       30.09S
SLIDELL        CLOUDY    68  59  73 N16G22    30.09F
BATON ROUGE    MOSUNNY   75  58  55 NE10      30.11F
BOOTHVILLE     CLOUDY    64  60  87 N9        30.06S
BELLE CHASSE   PTSUNNY   69  59  70 NE9G20    30.08F
BOGALUSA*        N/A     67  58  74 NE10      30.13F
GALLIANO*      PTSUNNY   72  62  71 N14G21    30.07S
NEW ROADS*       N/A     71  60  67 NW6       30.12F
GONZALES*        N/A     73  59  61 N6        30.08F
HAMMOND*       PTSUNNY   77  55  47 N10       30.10F
HOUMA*         MOSUNNY   72  59  64 N12       30.09F
PORT FOURCHON* PTSUNNY   70  61  73 N14       30.08F

$$

MSZ070-080>082-181800-
SOUTHERN MISSISSIPPI

CITY           SKY/WX    TMP DP  RH WIND       PRES   REMARKS
MCCOMB         CLOUDY    69  57  65 N7        30.14F
GULFPORT       CLOUDY    68  58  70 N18G24    30.06S
BILOXI         CLOUDY    67  60  78 N13G22    30.06S
PASCAGOULA     CLOUDY    63  59  87 N17G26    30.06F
STENNIS ARPT*    N/A     63  55  77 N12G21    30.09S

$$

COASTAL OBSERVATIONS
LAKE AND NEARSHORE STATIONS

STATION/POSITION TIME  TEMP    WIND        PRES    WAVE
                       AIR SEA DIR/SP/G            HT/PER
                 (UTC) (F)     (DEG/KT/KT) (MB)    (FT/S)
PASCAGOULA       1700   63      30/ 14/ 21 1016.9
WAVELAND YACHT   1700   64 66  360/ 15/ 18 1017.5
GRAND ISLE       1700   67 66   10/ 12/ 16 1018.3
SOUTHWEST PASS   1700   67 58   10/ 17/ 19 1017.6
NEW CANAL        1700   65 63   10/  9/ 11 1019.3
SHELL BEACH      1700   64 61  360/ 14/ 16 1018.1

OFFSHORE STATIONS

STATION/POSITION TIME  TEMP    WIND        PRES    WAVE
                       AIR SEA DIR/SP/G            HT/PER
                 (UTC) (F)     (DEG/KT/KT) (MB)    (FT/S)
64 S DAUPHIN ISL 1605   64 71   10/ 27/ 31 1015.3

$$




USA.gov is the U.S. government's official web portal to all federal, state and local government web resources and services.